TimeAEST,TemperatureF,Dew PointF,Humidity,Sea Level PressureIn,VisibilityMPH,Wind Direction,Wind SpeedMPH,Gust SpeedMPH,PrecipitationIn,Events,Conditions,WindDirDegrees,DateUTC
12:00 AM,76,72,82,29.86,,SE,9.2,,,,,140,2014-02-26 14:00:00
12:00 AM,77.0,71.6,83,29.86,-9999.0,SE,9.2,-,N/A,,Clear,140,2014-02-26 14:00:00
12:30 AM,77.0,69.8,78,29.86,-9999.0,SSE,5.8,-,N/A,,Clear,150,2014-02-26 14:30:00
1:00 AM,76,71,80,29.85,,South,6.9,,,,,180,2014-02-26 15:00:00
1:00 AM,77.0,71.6,83,29.83,-9999.0,South,6.9,-,N/A,,Clear,180,2014-02-26 15:00:00
1:30 AM,75.2,71.6,89,29.83,-9999.0,SE,6.9,-,N/A,,Clear,140,2014-02-26 15:30:00
2:00 AM,75.2,71.6,89,29.83,-9999.0,SE,6.9,-,N/A,,Clear,130,2014-02-26 16:00:00
2:30 AM,75.2,71.6,89,29.80,6.2,SSE,8.1,-,N/A,,Partly Cloudy,150,2014-02-26 16:30:00
3:00 AM,75,71,84,29.81,,ESE,8.1,,,,,120,2014-02-26 17:00:00
3:00 AM,75.2,71.6,89,29.80,6.2,ESE,8.1,-,N/A,,Partly Cloudy,120,2014-02-26 17:00:00
3:30 AM,75.2,69.8,83,29.80,6.2,SSE,9.2,-,N/A,,Partly Cloudy,150,2014-02-26 17:30:00
4:00 AM,73,71,90,29.82,,SW,3.5,,,,,220,2014-02-26 18:00:00
4:00 AM,73.4,71.6,94,29.80,6.2,SW,3.5,-,N/A,,Partly Cloudy,220,2014-02-26 18:00:00
4:30 AM,73.4,69.8,88,29.80,6.2,SSE,10.4,-,N/A,,Partly Cloudy,150,2014-02-26 18:30:00
5:00 AM,73.4,69.8,88,29.80,6.2,SSE,11.5,-,N/A,,Partly Cloudy,150,2014-02-26 19:00:00
5:30 AM,73.4,69.8,88,29.83,6.2,SSE,8.1,-,N/A,,Partly Cloudy,160,2014-02-26 19:30:00
6:00 AM,74,69,79,29.83,19,SSE,9.2,,,,Partly Cloudy,160,2014-02-26 20:00:00
6:00 AM,73.4,69.8,88,29.83,6.2,SSE,9.2,-,N/A,,Partly Cloudy,160,2014-02-26 20:00:00
6:30 AM,73.4,69.8,88,29.83,6.2,WNW,4.6,-,N/A,,Partly Cloudy,290,2014-02-26 20:30:00
7:00 AM,74,69,81,29.85,,SE,11.5,,,,,140,2014-02-26 21:00:00
7:00 AM,73.4,69.8,88,29.83,6.2,SE,11.5,-,N/A,,Partly Cloudy,140,2014-02-26 21:00:00
7:30 AM,75.2,68.0,78,29.83,6.2,South,8.1,-,N/A,,Partly Cloudy,170,2014-02-26 21:30:00
8:00 AM,77.0,69.8,78,29.86,6.2,SSE,10.4,-,N/A,,Partly Cloudy,160,2014-02-26 22:00:00
8:30 AM,77.0,69.8,78,29.86,6.2,South,9.2,-,N/A,,Partly Cloudy,180,2014-02-26 22:30:00
9:00 AM,78,71,74,29.88,6,South,8.1,,,,Mostly Cloudy,170,2014-02-26 23:00:00
9:00 AM,78.8,71.6,78,29.86,6.2,South,8.1,-,N/A,,Scattered Clouds,170,2014-02-26 23:00:00
9:30 AM,78.8,73.4,83,29.89,3.7,SSE,12.7,-,N/A,Rain,Light Rain Showers,150,2014-02-26 23:30:00
9:49 AM,77.0,73.4,89,29.89,1.9,SSE,11.5,-,N/A,Rain,Light Rain Showers,160,2014-02-26 23:49:00
10:00 AM,76,74,91,29.90,,SSE,10.4,,,,,160,2014-02-27 00:00:00
10:00 AM,75.2,73.4,94,29.89,1.2,SSE,10.4,-,N/A,Rain,Light Rain Showers,160,2014-02-27 00:00:00
10:30 AM,77.0,75.2,94,29.89,3.1,South,10.4,-,N/A,Rain,Light Rain Showers,180,2014-02-27 00:30:00
10:52 AM,78.8,73.4,83,29.89,6.2,SSW,13.8,-,N/A,,Overcast,200,2014-02-27 00:52:00
11:00 AM,78.8,71.6,78,29.89,6.2,SSW,10.4,-,N/A,,Mostly Cloudy,210,2014-02-27 01:00:00
11:30 AM,80.6,71.6,74,29.89,6.2,SSW,9.2,-,N/A,,Mostly Cloudy,210,2014-02-27 01:30:00
12:00 PM,82,73,69,29.88,16,South,8.1,,,,Partly Cloudy,190,2014-02-27 02:00:00
12:00 PM,82.4,73.4,74,29.86,6.2,South,8.1,-,N/A,,Mostly Cloudy,190,2014-02-27 02:00:00
12:30 PM,86.0,75.2,70,29.86,6.2,SSE,9.2,-,N/A,,Mostly Cloudy,150,2014-02-27 02:30:00
1:00 PM,84,74,66,29.86,,South,9.2,,,,,180,2014-02-27 03:00:00
1:00 PM,84.2,75.2,74,29.83,6.2,South,9.2,-,N/A,,Mostly Cloudy,180,2014-02-27 03:00:00
1:30 PM,84.2,73.4,70,29.83,6.2,South,8.1,-,N/A,,Mostly Cloudy,180,2014-02-27 03:30:00
2:00 PM,78.8,73.4,83,29.83,6.2,ESE,17.3,-,N/A,Rain,Light Rain Showers,120,2014-02-27 04:00:00
2:30 PM,82.4,73.4,74,29.80,6.2,South,2.3,-,N/A,,Mostly Cloudy,180,2014-02-27 04:30:00
3:00 PM,84,72,61,29.81,19,SE,8.1,,,Rain,Light Rain Showers,140,2014-02-27 05:00:00
3:00 PM,84.2,73.4,70,29.80,6.2,SE,8.1,-,N/A,,Mostly Cloudy,140,2014-02-27 05:00:00
3:30 PM,84.2,73.4,70,29.80,6.2,South,8.1,-,N/A,,Mostly Cloudy,190,2014-02-27 05:30:00
4:00 PM,84,69,53,29.81,,South,5.8,,,,,190,2014-02-27 06:00:00
4:00 PM,84.2,69.8,62,29.80,6.2,South,5.8,-,N/A,,Mostly Cloudy,190,2014-02-27 06:00:00
4:30 PM,84.2,69.8,62,29.80,6.2,SE,8.1,-,N/A,,Mostly Cloudy,130,2014-02-27 06:30:00
5:00 PM,82.4,71.6,70,29.80,6.2,SE,12.7,-,N/A,,Mostly Cloudy,140,2014-02-27 07:00:00
5:30 PM,80.6,71.6,74,29.80,6.2,South,9.2,-,N/A,,Mostly Cloudy,190,2014-02-27 07:30:00
6:00 PM,80,71,69,29.82,,South,8.1,,,,Overcast,180,2014-02-27 08:00:00
6:00 PM,80.6,71.6,74,29.80,6.2,South,8.1,-,N/A,,Scattered Clouds,180,2014-02-27 08:00:00
6:30 PM,78.8,71.6,78,29.83,6.2,South,8.1,-,N/A,,Mostly Cloudy,180,2014-02-27 08:30:00
7:00 PM,79,71,71,29.85,,SSE,8.1,,,,,160,2014-02-27 09:00:00
7:00 PM,78.8,71.6,78,29.83,6.2,SSE,8.1,-,N/A,,Mostly Cloudy,160,2014-02-27 09:00:00
7:30 PM,78.8,71.6,78,29.83,6.2,SSE,6.9,-,N/A,,Mostly Cloudy,160,2014-02-27 09:30:00
8:00 PM,78.8,71.6,78,29.86,6.2,SSE,8.1,-,N/A,,Mostly Cloudy,160,2014-02-27 10:00:00
8:30 PM,78.8,71.6,78,29.86,6.2,SSE,5.8,-,N/A,,Mostly Cloudy,160,2014-02-27 10:30:00
9:00 PM,80,69,63,29.88,,South,5.8,,,,,170,2014-02-27 11:00:00
9:00 PM,78.8,69.8,74,29.86,6.2,South,5.8,-,N/A,,Mostly Cloudy,170,2014-02-27 11:00:00
9:30 PM,77.0,71.6,83,29.86,6.2,SE,6.9,-,N/A,,Scattered Clouds,140,2014-02-27 11:30:00
10:00 PM,77,72,80,29.89,,SSE,6.9,,,,,150,2014-02-27 12:00:00
10:00 PM,77.0,71.6,83,29.89,6.2,SSE,6.9,-,N/A,,Scattered Clouds,150,2014-02-27 12:00:00
10:30 PM,77.0,75.2,94,29.89,6.2,SE,12.7,-,N/A,Rain,Light Rain Showers,130,2014-02-27 12:30:00
11:00 PM,75.2,73.4,94,29.89,6.2,SSE,9.2,-,N/A,,Mostly Cloudy,160,2014-02-27 13:00:00
11:30 PM,75.2,71.6,89,29.89,6.2,WSW,5.8,-,N/A,,Mostly Cloudy,240,2014-02-27 13:30:00